Tracking 19908 objects as of 19-Oct-2019
HD Live streaming from Space Station
objects crossing your sky now

QUIKSCAT

Track QUIKSCAT now!
10-day predictions
QUIKSCAT is classified as:


NORAD ID: 25789
Int'l Code: 1999-034A
Perigee: 664.0 km
Apogee: 805.7 km
Inclination: 98.6 °
Period: 99.4 minutes
Semi major axis: 7105 km
RCS: 2.9895 m2 (large)
Launch date: June 20, 1999
Source: United States (US)
Launch site: AIR FORCE WESTERN TEST RANGE (AFWTR)

Detailed snapshots of the winds swirling above the world's oceans.
aabbcc
Your satellite tracking list
Your tracking list is empty




NASA's NSSDC Master Catalog

Two Line Element Set (TLE):
1 25789U 99034A   19291.70072091 -.00000019 +00000-0 +78021-5 0  9998
2 25789 098.5881 130.8493 0099718 142.7975 218.0182 14.49365430059835
Source of the keplerian elements: AFSPC